Location: *
(44.3526°S, 44.9014°W)
Time: 23:03:25
(UTC+00:00)

BREEZE-M DEB (TANK) - Pass Details

Date: 13 May 2025
Orbit: 317 x 14471 km, 49.5° (Epoch: 14 June)

Event Time Altitude Azimuth Distance (km) Brightness Sun altitude
Rises 20:12:57 0° 293° (WNW) 7,288 11.6 -5.5°
Reaches altitude 10° 20:19:43 10° 291° (WNW) 4,503 9.5 -6.7°
Maximum altitude 20:28:39 74° 205° (SSW) 758 3.7 -8.2°
Enters shadow 20:31:36 11° 119° (ESE) 1,549 4.7 -8.7°
